Regional Weather Roundup
Issued by NWS Mt. Holly, NJ

Home | Current Version | Previous Version | Text Only | Print | Product List | Glossary On
Versions: 1 2 3 4 5 6 7 8 9 10 11 12 13 14 15 16 17 18 19 20 21 22 23 24 25 26 27
000
ASUS41 KPHI 242010
RWRPHI

REGIONAL WEATHER ROUNDUP
NATIONAL WEATHER SERVICE MOUNT HOLLY NJ
400 PM EDT THU APR 24 2014

NOTE:  "FAIR" INDICATES FEW OR NO CLOUDS BELOW 12,000 FEET WITH NO
SIGNIFICANT WEATHER AND/OR OBSTRUCTIONS TO VISIBILITY.

 * = STATION DOES NOT REPORT PRECIPITATION (E.G. RAIN, SNOW, ETC.)
        OR FOG.

NJZ015>026-242100-
SOUTHERN NEW JERSEY

CITY           SKY/WX    TMP DP  RH WIND       PRES   REMARKS
POMONA         SUNNY     60  16  18 W17G26    29.93F
RIO GRANDE*    SUNNY     57  27  30 W16G24    29.99S
MILLVILLE      SUNNY     61  21  21 NW18G25   29.96F
WRIGHTSTOWN    SUNNY     61  15  16 NW24G31   29.90F
MOUNT HOLLY    SUNNY     61  15  16 NW8G24    29.94F
TRENTON        SUNNY     61  11  14 NW18G32   29.92F

$$
NJZ001>014-242100-
NORTHERN NEW JERSEY

CITY           SKY/WX    TMP DP  RH WIND       PRES   REMARKS
SUSSEX         SUNNY     60  14  16 NW12G23   29.92S
ANDOVER*         N/A     57  13  17 NW15G22   29.92S
MORRISTOWN     SUNNY     61  12  15 NW16G30   29.91F
NEWARK         MOSUNNY   62  10  13 N25       29.88S
TETERBORO      SUNNY     64  15  15 NW15G31   29.87F
CALDWELL       SUNNY     60  15  17 NW18G24   29.90S
SOMERVILLE     SUNNY     61  14  16 NW17G25   29.90F
ALLAIRE*       SUNNY     61  18  18 NW23G37   29.90S
TOMS RIVER*    SUNNY     61  16  17 NW15G31   29.92S

$$
PAZ043-044-047-054-055-060>062-066>071-242100-
EASTERN PENNSYLVANIA

CITY           SKY/WX    TMP DP  RH WIND       PRES   REMARKS
PHILADELPHIA   SUNNY     63  14  15 NW20G29   29.96F
NORTH PHILA    SUNNY     63  13  14 NW17G31   29.96F
BLUE BELL      SUNNY     63  12  14 NW7G23    29.94F
DOYLESTOWN     SUNNY     60  17  18 N13G24    29.93F
QUAKERTOWN*    SUNNY     59  16  18 W10G22    29.96F
POTTSTOWN      SUNNY     60  17  18 NW13G23   29.97F
LANCASTER      SUNNY     59  18  20 NW17G24   29.99F
COATESVILLE    SUNNY     57  18  21 NW9       29.98F
READING        SUNNY     61  19  19 NW14G25   29.97F
ALLENTOWN      SUNNY     60  14  16 NW21G31   29.96F
MOUNT POCONO   SUNNY     52  10  18 N18G29    29.94F
HAZLETON       SUNNY     54   5  14 NW15G28   29.99F
WILKES BARRE   SUNNY     57  14  18 N17G30    29.98F

$$
DEZALL-MDZ008-012-015-019-020-242100-
DELAWARE AND EASTERN MARYLAND

CITY           SKY/WX    TMP DP  RH WIND       PRES   REMARKS
WILMINGTON     SUNNY     62  21  20 W14       29.99F
DOVER          SUNNY     61  21  21 NW14G23   29.95F
GEORGETOWN     SUNNY     62  20  19 N12G18    29.99F
EASTON         SUNNY     63  27  25 NW9G23    30.05F
PATUXENT       MOSUNNY   58  28  32 E7        30.01F
OCEAN CITY     SUNNY     62  23  22 NW15G24   29.98F
WALLOPS ISLAND SUNNY     62  27  26 NW18      30.00F
CAMBRIDGE      SUNNY     61  19  20 NW12G20   30.01F
SALISBURY      SUNNY     64  20  18 NW13G20   29.99F

$$
PAZ001-021-NYZ056-072-MDZ011-DCZ001-242100-
OTHER NEARBY LOCATIONS

CITY           SKY/WX    TMP DP  RH WIND       PRES   REMARKS
HARRISBURG     MOSUNNY   66  18  15 NW14      29.98F
STATE COLLEGE  SUNNY     61  10  13 N12       29.99F
WILLIAMSPORT   SUNNY     61  13  15 N13G22    29.99F
BINGHAMTON     SUNNY     49  17  28 NW14G26   30.00S
NEW YORK CITY  SUNNY     60   9  13 NW12G30   29.90S
BALTIMORE      MOSUNNY   62  20  19 NW7G16    30.00F
WASHINGTON DC  MOSUNNY   65  24  21 N9        30.02F

$$



USA.gov is the U.S. government's official web portal to all federal, state and local government web resources and services.